Overview Statistics Trail Chart Weather Telemetry Raw packets
 

This is the latest recevied weather packets stored in our database for station/object IW1RCO-13. If no packets are shown the sender has not sent any weather packets the latest 10 day(s).

<< 47 48 49 50 51 52 53 >>
Time Temp. Humidity Pressure Rain* Wind** Luminosity Snow
1788287370 21.11° C 83% 1018.6 hPa - - - -
1788287067 21.11° C 85% 1017.8 hPa - - - -
1788286770 21.11° C 83% 1017.8 hPa - - - -
1788286466 21.67° C 85% 1017.6 hPa - - - -
1788286170 21.67° C 86% 1018 hPa - - - -
1788285866 22.22° C 88% 1018.2 hPa - - - -
1788285570 22.22° C 87% 1017.4 hPa - - - -
1788285266 22.22° C 86% 1017 hPa - - - -
1788284969 22.22° C 86% 1016.7 hPa - - - -
1788284673 22.78° C 85% 1017.2 hPa - - - -
1788284369 22.78° C 85% 1018.3 hPa - - - -
1788284072 22.78° C 85% 1017.6 hPa - - - -
1788283769 23.33° C 85% 1017.1 hPa - - - -
1788283472 22.78° C 85% 1016.5 hPa - - - -
1788283168 23.33° C 84% 1017.3 hPa - - - -
1788282872 23.33° C 83% 1017.2 hPa - - - -
1788282568 23.33° C 83% 1017.3 hPa - - - -
1788282272 23.89° C 82% 1017.1 hPa - - - -
1788281968 23.89° C 81% 1016.4 hPa - - - -
1788281368 23.89° C 81% 1016.7 hPa - - - -
1788281071 24.44° C 78% 1016.7 hPa - - - -
1788280767 24.44° C 78% 1016.8 hPa - - - -
1788280471 24.44° C 79% 1017.3 hPa - - - -
1788280167 24.44° C 77% 1017.1 hPa - - - -
1788279870 25° C 77% 1016.5 hPa - - - -

* Rain since midnight (hover to see other rain measurements)
** Current wind speed in m/s (hover to see current wind gust speed)